Year,Month,Day,Hour,Minute,Value (Times are PST for windspeed in km/hr)
2010,07,13,00,00,21.60
2010,07,13,00,01,23.80
2010,07,13,00,02,23.50
2010,07,13,00,03,23.70
2010,07,13,00,04,19.00
2010,07,13,00,05,24.10
2010,07,13,00,06,22.70
2010,07,13,00,07,20.40
2010,07,13,00,08,17.40
2010,07,13,00,09,20.60
2010,07,13,00,10,17.10
2010,07,13,00,11,22.90
2010,07,13,00,12,17.20
2010,07,13,00,13,15.20
2010,07,13,00,14,15.50
2010,07,13,00,15,21.30
2010,07,13,00,16,17.30
2010,07,13,00,17,18.30
2010,07,13,00,18,19.20
2010,07,13,00,19,21.50
2010,07,13,00,20,20.80
2010,07,13,00,21,18.00
2010,07,13,00,22,18.50
2010,07,13,00,23,20.00
2010,07,13,00,24,13.50
2010,07,13,00,25,20.60
2010,07,13,00,26,18.00
2010,07,13,00,27,15.90
2010,07,13,00,28,24.40
2010,07,13,00,29,27.40
2010,07,13,00,30,18.70
2010,07,13,00,31,20.70
2010,07,13,00,32,16.80
2010,07,13,00,33,14.10
2010,07,13,00,34,17.70
2010,07,13,00,35,14.50
2010,07,13,00,36,11.20
2010,07,13,00,37,7.00
2010,07,13,00,38,13.40
2010,07,13,00,39,13.60
2010,07,13,00,40,12.20
2010,07,13,00,41,17.10
2010,07,13,00,42,14.70
2010,07,13,00,43,15.10
2010,07,13,00,44,16.30
2010,07,13,00,45,19.40
2010,07,13,00,46,17.40
2010,07,13,00,47,16.30
2010,07,13,00,48,21.50
2010,07,13,00,49,28.20
2010,07,13,00,50,27.30
2010,07,13,00,51,22.40
2010,07,13,00,52,29.30
2010,07,13,00,53,22.00
2010,07,13,00,54,22.10
2010,07,13,00,55,25.00
2010,07,13,00,56,24.10
2010,07,13,00,57,18.00
2010,07,13,00,58,21.00
2010,07,13,00,59,18.80
2010,07,13,01,00,23.30
2010,07,13,01,01,20.70
2010,07,13,01,02,24.70
2010,07,13,01,03,17.70
2010,07,13,01,04,21.30
2010,07,13,01,05,16.70
2010,07,13,01,06,17.40
2010,07,13,01,07,28.60
2010,07,13,01,08,22.80
2010,07,13,01,09,24.20
2010,07,13,01,10,20.80
2010,07,13,01,11,16.50
2010,07,13,01,12,23.40
2010,07,13,01,13,16.90
2010,07,13,01,14,23.10
2010,07,13,01,15,18.00
2010,07,13,01,16,20.40
2010,07,13,01,17,27.30
2010,07,13,01,18,20.80
2010,07,13,01,19,30.20
2010,07,13,01,20,21.20
2010,07,13,01,21,24.00
2010,07,13,01,22,18.80
2010,07,13,01,23,18.50
2010,07,13,01,24,20.60
2010,07,13,01,25,16.50
2010,07,13,01,26,16.30
2010,07,13,01,27,20.40
2010,07,13,01,28,24.40
2010,07,13,01,29,24.50
2010,07,13,01,30,23.30
2010,07,13,01,31,23.30
2010,07,13,01,32,30.00
2010,07,13,01,33,26.10
2010,07,13,01,34,28.70
2010,07,13,01,35,22.10
2010,07,13,01,36,26.40
2010,07,13,01,37,23.50
2010,07,13,01,38,20.70
2010,07,13,01,39,22.00
2010,07,13,01,40,25.30
2010,07,13,01,41,23.90
2010,07,13,01,42,22.90
2010,07,13,01,43,25.70
2010,07,13,01,44,26.30
2010,07,13,01,45,23.40
2010,07,13,01,46,20.70
2010,07,13,01,47,22.10
2010,07,13,01,48,21.40
2010,07,13,01,49,23.10
2010,07,13,01,50,25.70
2010,07,13,01,51,26.20
2010,07,13,01,52,26.30
2010,07,13,01,53,24.50
2010,07,13,01,54,18.00
2010,07,13,01,55,17.40
2010,07,13,01,56,22.60
2010,07,13,01,57,27.70
2010,07,13,01,58,21.10
2010,07,13,01,59,21.40
2010,07,13,02,00,21.40
2010,07,13,02,01,24.90
2010,07,13,02,02,20.30
2010,07,13,02,03,15.00
2010,07,13,02,04,17.90
2010,07,13,02,05,19.30
2010,07,13,02,06,23.80
2010,07,13,02,07,25.20
2010,07,13,02,08,29.50
2010,07,13,02,09,26.20
2010,07,13,02,10,22.80
2010,07,13,02,11,21.30
2010,07,13,02,12,19.70
2010,07,13,02,13,18.60
2010,07,13,02,14,16.90
2010,07,13,02,15,15.00
2010,07,13,02,16,23.60
2010,07,13,02,17,17.20
2010,07,13,02,18,21.90
2010,07,13,02,19,19.20
2010,07,13,02,20,26.00
2010,07,13,02,21,23.60
2010,07,13,02,22,24.60
2010,07,13,02,23,27.40
2010,07,13,02,24,24.50
2010,07,13,02,25,25.30
2010,07,13,02,26,24.50
2010,07,13,02,27,29.20
2010,07,13,02,28,24.10
2010,07,13,02,29,25.20
2010,07,13,02,30,26.90
2010,07,13,02,31,30.90
2010,07,13,02,32,29.30
2010,07,13,02,33,30.20
2010,07,13,02,34,29.30
2010,07,13,02,35,24.40
2010,07,13,02,36,26.60
2010,07,13,02,37,31.30
2010,07,13,02,38,26.80
2010,07,13,02,39,33.70
2010,07,13,02,40,26.60
2010,07,13,02,41,32.40
2010,07,13,02,42,26.60
2010,07,13,02,43,25.40
2010,07,13,02,44,20.80
2010,07,13,02,45,25.30
2010,07,13,02,46,23.00
2010,07,13,02,47,25.30
2010,07,13,02,48,19.10
2010,07,13,02,49,24.50
2010,07,13,02,50,22.90
2010,07,13,02,51,22.40
2010,07,13,02,52,23.60
2010,07,13,02,53,20.60
2010,07,13,02,54,23.50
2010,07,13,02,55,18.90
2010,07,13,02,56,22.20
2010,07,13,02,57,19.90
2010,07,13,02,58,22.40
2010,07,13,02,59,23.30
2010,07,13,03,00,19.30
2010,07,13,03,01,19.20
2010,07,13,03,02,18.00
2010,07,13,03,03,11.60
2010,07,13,03,06,22.50
2010,07,13,03,07,24.20
2010,07,13,03,08,21.30
2010,07,13,03,09,20.40
2010,07,13,03,10,16.50
2010,07,13,03,11,18.00
2010,07,13,03,12,24.60
2010,07,13,03,13,15.30
2010,07,13,03,14,14.20
2010,07,13,03,15,18.50
2010,07,13,03,16,18.50
2010,07,13,03,17,22.80
2010,07,13,03,18,30.40
2010,07,13,03,19,18.40
2010,07,13,03,20,15.20
2010,07,13,03,21,18.50
2010,07,13,03,22,22.00
2010,07,13,03,23,16.10
2010,07,13,03,24,23.00
2010,07,13,03,25,19.40
2010,07,13,03,26,17.40
2010,07,13,03,27,18.30
2010,07,13,03,28,17.40
2010,07,13,03,29,18.40
2010,07,13,03,30,21.30
2010,07,13,03,31,20.20
2010,07,13,03,32,21.60
2010,07,13,03,33,16.30
2010,07,13,03,34,15.90
2010,07,13,03,35,20.90
2010,07,13,03,36,24.10
2010,07,13,03,37,17.70
2010,07,13,03,38,17.20
2010,07,13,03,39,22.50
2010,07,13,03,40,20.10
2010,07,13,03,41,20.30
2010,07,13,03,42,16.60
2010,07,13,03,43,17.90
2010,07,13,03,44,18.70
2010,07,13,03,45,20.00
2010,07,13,03,46,13.40
2010,07,13,03,47,18.60
2010,07,13,03,48,15.70
2010,07,13,03,49,18.40
2010,07,13,03,50,13.80
2010,07,13,03,51,11.90
2010,07,13,03,52,12.70
2010,07,13,03,53,15.00
2010,07,13,03,54,17.40
2010,07,13,03,55,16.70
2010,07,13,03,56,10.50
2010,07,13,03,57,17.70
2010,07,13,03,58,16.10
2010,07,13,03,59,17.50
2010,07,13,04,00,11.40
2010,07,13,04,01,13.80
2010,07,13,04,02,19.70
2010,07,13,04,03,20.40
2010,07,13,04,04,16.90
2010,07,13,04,05,18.20
2010,07,13,04,06,18.20
2010,07,13,04,07,15.80
2010,07,13,04,08,20.70
2010,07,13,04,09,25.00
2010,07,13,04,10,23.00
2010,07,13,04,11,20.20
2010,07,13,04,12,18.70
2010,07,13,04,13,20.90
2010,07,13,04,14,20.40
2010,07,13,04,15,24.80
2010,07,13,04,16,25.80
2010,07,13,04,17,21.80
2010,07,13,04,18,17.40
2010,07,13,04,19,15.90
2010,07,13,04,20,20.10
2010,07,13,04,21,20.90
2010,07,13,04,22,25.70
2010,07,13,04,23,16.90
2010,07,13,04,24,19.20
2010,07,13,04,25,12.90
2010,07,13,04,26,16.80
2010,07,13,04,27,20.00
2010,07,13,04,28,19.50
2010,07,13,04,29,19.70
2010,07,13,04,30,17.30
2010,07,13,04,31,19.80
2010,07,13,04,32,8.50
2010,07,13,04,33,10.80
2010,07,13,04,34,11.60
2010,07,13,04,35,16.30
2010,07,13,04,36,16.30
2010,07,13,04,37,13.60
2010,07,13,04,38,10.30
2010,07,13,04,39,10.30
2010,07,13,04,40,6.70
2010,07,13,04,41,9.00
2010,07,13,04,42,8.10
2010,07,13,04,43,7.20
2010,07,13,04,44,13.20
2010,07,13,04,45,16.30
2010,07,13,04,46,13.40
2010,07,13,04,47,17.30
2010,07,13,04,48,19.10
2010,07,13,04,49,20.80
2010,07,13,04,50,17.50
2010,07,13,04,51,15.60
2010,07,13,04,52,13.60
2010,07,13,04,53,10.50
2010,07,13,04,54,11.40
2010,07,13,04,55,13.60
2010,07,13,04,56,19.10
2010,07,13,04,57,16.80
2010,07,13,04,58,16.70
2010,07,13,04,59,15.40
2010,07,13,05,00,18.40
2010,07,13,05,01,17.90
2010,07,13,05,02,16.00
2010,07,13,05,03,14.20
2010,07,13,05,04,9.00
2010,07,13,05,05,10.80
2010,07,13,05,06,10.30
2010,07,13,05,07,12.60
2010,07,13,05,08,15.90
2010,07,13,05,09,14.90
2010,07,13,05,10,12.70
2010,07,13,05,11,10.30
2010,07,13,05,12,17.30
2010,07,13,05,13,16.20
2010,07,13,05,14,16.30
2010,07,13,05,15,17.70
2010,07,13,05,16,13.50
2010,07,13,05,17,16.50
2010,07,13,05,18,17.00
2010,07,13,05,19,17.80
2010,07,13,05,20,18.50
2010,07,13,05,21,16.10
2010,07,13,05,22,9.60
2010,07,13,05,23,13.90
2010,07,13,05,24,13.30
2010,07,13,05,25,15.60
2010,07,13,05,26,16.60
2010,07,13,05,27,17.10
2010,07,13,05,28,18.20
2010,07,13,05,29,19.10
2010,07,13,05,30,20.90
2010,07,13,05,31,13.70
2010,07,13,05,32,11.30
2010,07,13,05,33,14.70
2010,07,13,05,34,14.60
2010,07,13,05,35,14.00
2010,07,13,05,36,16.10
2010,07,13,05,37,17.00
2010,07,13,05,38,15.50
2010,07,13,05,39,10.60
2010,07,13,05,40,11.30
2010,07,13,05,41,18.90
2010,07,13,05,42,19.10
2010,07,13,05,43,14.50
2010,07,13,05,44,17.00
2010,07,13,05,45,15.80
2010,07,13,05,46,14.00
2010,07,13,05,47,13.40
2010,07,13,05,48,16.70
2010,07,13,05,49,19.00
2010,07,13,05,50,15.80
2010,07,13,05,51,13.10
2010,07,13,05,52,16.70
2010,07,13,05,53,11.00
2010,07,13,05,54,15.00
2010,07,13,05,55,12.60
2010,07,13,05,56,15.30
2010,07,13,05,57,13.00
2010,07,13,05,58,13.90
2010,07,13,05,59,12.30
2010,07,13,06,00,11.30
2010,07,13,06,01,11.20
2010,07,13,06,02,9.40
2010,07,13,06,03,13.20
2010,07,13,06,04,15.50
2010,07,13,06,05,12.60
2010,07,13,06,06,10.30
2010,07,13,06,07,7.40
2010,07,13,06,08,12.00
2010,07,13,06,09,14.10
2010,07,13,06,10,11.20
2010,07,13,06,11,9.90
2010,07,13,06,12,10.80
2010,07,13,06,13,9.30
2010,07,13,06,14,10.40
2010,07,13,06,15,14.10
2010,07,13,06,16,13.40
2010,07,13,06,17,10.10
2010,07,13,06,18,13.60
2010,07,13,06,19,15.20
2010,07,13,06,20,15.40
2010,07,13,06,21,10.90
2010,07,13,06,22,14.80
2010,07,13,06,23,15.40
2010,07,13,06,24,13.80
2010,07,13,06,25,14.00
2010,07,13,06,26,14.70
2010,07,13,06,27,15.70
2010,07,13,06,28,17.50
2010,07,13,06,29,16.80
2010,07,13,06,30,17.30
2010,07,13,06,31,16.80
2010,07,13,06,32,17.10
2010,07,13,06,33,16.30
2010,07,13,06,34,12.60
2010,07,13,06,35,13.80
2010,07,13,06,36,14.50
2010,07,13,06,37,12.00
2010,07,13,06,38,7.60
2010,07,13,06,39,9.20
2010,07,13,06,40,14.10
2010,07,13,06,41,16.60
2010,07,13,06,42,10.50
2010,07,13,06,43,18.30
2010,07,13,06,44,14.20
2010,07,13,06,45,18.00
2010,07,13,06,46,19.90
2010,07,13,06,47,16.00
2010,07,13,06,48,18.00
2010,07,13,06,49,18.90
2010,07,13,06,50,17.80
2010,07,13,06,51,14.70
2010,07,13,06,52,13.60
2010,07,13,06,53,18.10
2010,07,13,06,54,18.50
2010,07,13,06,55,22.30
2010,07,13,06,56,20.50
2010,07,13,06,57,18.00
2010,07,13,06,58,19.50
2010,07,13,06,59,16.20
2010,07,13,07,00,11.00
2010,07,13,07,01,18.00
2010,07,13,07,02,15.00
2010,07,13,07,03,19.80
2010,07,13,07,04,19.50
2010,07,13,07,05,13.90
2010,07,13,07,06,20.70
2010,07,13,07,07,15.40
2010,07,13,07,08,13.50
2010,07,13,07,09,14.20
2010,07,13,07,10,15.40
2010,07,13,07,11,20.60
2010,07,13,07,12,14.80
2010,07,13,07,13,14.50
2010,07,13,07,14,10.30
2010,07,13,07,15,15.30
2010,07,13,07,16,18.50
2010,07,13,07,17,18.10
2010,07,13,07,18,8.40
2010,07,13,07,19,6.50
2010,07,13,07,20,11.30
2010,07,13,07,21,18.60
2010,07,13,07,22,14.80
2010,07,13,07,23,17.80
2010,07,13,07,24,12.10
2010,07,13,07,25,9.90
2010,07,13,07,26,13.60
2010,07,13,07,27,16.50
2010,07,13,07,28,15.40
2010,07,13,07,29,15.50
2010,07,13,07,30,11.30
2010,07,13,07,31,11.10
2010,07,13,07,32,17.90
2010,07,13,07,33,17.50
2010,07,13,07,34,11.20
2010,07,13,07,35,16.30
2010,07,13,07,36,17.80
2010,07,13,07,37,21.30
2010,07,13,07,38,21.40
2010,07,13,07,39,21.30
2010,07,13,07,40,21.20
2010,07,13,07,41,13.00
2010,07,13,07,42,16.80
2010,07,13,07,43,17.90
2010,07,13,07,44,12.40
2010,07,13,07,45,19.60
2010,07,13,07,46,12.60
2010,07,13,07,47,11.80
2010,07,13,07,48,17.50
2010,07,13,07,49,14.60
2010,07,13,07,50,16.30
2010,07,13,07,51,11.40
2010,07,13,07,52,15.00
2010,07,13,07,53,16.00
2010,07,13,07,54,19.40
2010,07,13,07,55,18.80
2010,07,13,07,56,22.00
2010,07,13,07,57,20.80
2010,07,13,07,58,21.90
2010,07,13,07,59,20.90
2010,07,13,08,00,20.00
2010,07,13,08,01,15.70
2010,07,13,08,02,14.60
2010,07,13,08,03,15.10
2010,07,13,08,04,15.00
2010,07,13,08,05,10.30
2010,07,13,08,06,12.60
2010,07,13,08,07,22.30
2010,07,13,08,08,16.60
2010,07,13,08,09,21.10
2010,07,13,08,10,22.60
2010,07,13,08,11,21.60
2010,07,13,08,12,18.00
2010,07,13,08,13,15.70
2010,07,13,08,14,14.40
2010,07,13,08,15,15.40
2010,07,13,08,16,18.10
2010,07,13,08,17,18.10
2010,07,13,08,18,23.00
2010,07,13,08,19,16.60
2010,07,13,08,20,14.20
2010,07,13,08,21,16.00
2010,07,13,08,22,19.20
2010,07,13,08,23,17.10
2010,07,13,08,24,21.30
2010,07,13,08,25,17.40
2010,07,13,08,26,24.70
2010,07,13,08,27,21.10
2010,07,13,08,28,20.40
2010,07,13,08,29,16.10
2010,07,13,08,30,19.80
2010,07,13,08,31,23.10
2010,07,13,08,32,26.30
2010,07,13,08,33,20.80
2010,07,13,08,34,19.00
2010,07,13,08,35,19.70
2010,07,13,08,36,18.20
2010,07,13,08,37,28.20
2010,07,13,08,38,22.00
2010,07,13,08,39,24.10
2010,07,13,08,40,25.70
2010,07,13,08,41,25.80
2010,07,13,08,42,25.90
2010,07,13,08,43,21.80
2010,07,13,08,44,14.90
2010,07,13,08,45,15.40
2010,07,13,08,46,24.70
2010,07,13,08,47,19.40
2010,07,13,08,48,19.10
2010,07,13,08,49,19.80
2010,07,13,08,50,21.60
2010,07,13,08,51,20.20
2010,07,13,08,52,16.80
2010,07,13,08,53,25.10
2010,07,13,08,54,23.40
2010,07,13,08,55,22.00
2010,07,13,08,56,21.80
2010,07,13,08,57,27.60
2010,07,13,08,58,24.20
2010,07,13,08,59,23.60
2010,07,13,09,00,26.10
2010,07,13,09,01,25.40
2010,07,13,09,02,23.00
2010,07,13,09,03,23.10
2010,07,13,09,04,20.30
2010,07,13,09,05,17.30
2010,07,13,09,06,16.80
2010,07,13,09,07,21.20
2010,07,13,09,08,23.20
2010,07,13,09,09,23.10
2010,07,13,09,10,23.70
2010,07,13,09,11,19.20
2010,07,13,09,12,23.90
2010,07,13,09,13,20.10
2010,07,13,09,14,25.10
2010,07,13,09,15,20.20
2010,07,13,09,16,26.60
2010,07,13,09,17,23.70
2010,07,13,09,18,23.30
2010,07,13,09,19,23.50
2010,07,13,09,20,16.70
2010,07,13,09,21,20.50
2010,07,13,09,22,20.10
2010,07,13,09,23,21.20
2010,07,13,09,24,23.60
2010,07,13,09,25,19.30
2010,07,13,09,26,20.40
2010,07,13,09,27,19.60
2010,07,13,09,28,20.00
2010,07,13,09,29,17.40
2010,07,13,09,30,22.50
2010,07,13,09,31,19.70
2010,07,13,09,32,18.30
2010,07,13,09,33,21.40
2010,07,13,09,34,22.30
2010,07,13,09,35,18.20
2010,07,13,09,36,17.50
2010,07,13,09,37,14.70
2010,07,13,09,38,16.90
2010,07,13,09,39,21.90
2010,07,13,09,40,19.40
2010,07,13,09,41,21.40
2010,07,13,09,42,17.10
2010,07,13,09,43,20.30
2010,07,13,09,44,17.90
2010,07,13,09,45,21.30
2010,07,13,09,46,16.60
2010,07,13,09,47,19.20
2010,07,13,09,48,22.30
2010,07,13,09,49,16.60
2010,07,13,09,50,22.80
2010,07,13,09,51,25.20
2010,07,13,09,52,22.80
2010,07,13,09,53,19.70
2010,07,13,09,54,20.90
2010,07,13,09,55,21.10
2010,07,13,09,56,18.80
2010,07,13,09,57,20.30
2010,07,13,09,58,21.90
2010,07,13,09,59,18.10
2010,07,13,10,00,18.60
2010,07,13,10,01,17.50
2010,07,13,10,02,19.80
2010,07,13,10,03,18.10
2010,07,13,10,04,25.10
2010,07,13,10,05,19.70
2010,07,13,10,06,20.70
2010,07,13,10,07,24.80
2010,07,13,10,08,17.90
2010,07,13,10,09,20.70
2010,07,13,10,10,22.50
2010,07,13,10,11,19.70
2010,07,13,10,12,22.00
2010,07,13,10,13,23.70
2010,07,13,10,14,24.60
2010,07,13,10,15,23.80
2010,07,13,10,16,18.80
2010,07,13,10,17,17.70
2010,07,13,10,18,13.30
2010,07,13,10,19,17.70
2010,07,13,10,20,20.10
2010,07,13,10,21,24.60
2010,07,13,10,22,21.40
2010,07,13,10,23,16.80
2010,07,13,10,24,21.50
2010,07,13,10,25,20.10
2010,07,13,10,26,24.30
2010,07,13,10,27,17.90
2010,07,13,10,28,19.20
2010,07,13,10,29,14.60
2010,07,13,10,30,23.90
2010,07,13,10,31,21.10
2010,07,13,10,32,20.10
2010,07,13,10,33,21.60
2010,07,13,10,34,20.80
2010,07,13,10,35,17.50
2010,07,13,10,36,17.70
2010,07,13,10,37,19.70
2010,07,13,10,38,21.50
2010,07,13,10,39,20.70
2010,07,13,10,40,19.60
2010,07,13,10,41,22.40
2010,07,13,10,42,21.00
2010,07,13,10,43,24.90
2010,07,13,10,44,21.90
2010,07,13,10,45,22.40
2010,07,13,10,46,25.60
2010,07,13,10,47,21.70
2010,07,13,10,48,21.40
2010,07,13,10,49,18.60
2010,07,13,10,50,21.20
2010,07,13,10,51,19.70
2010,07,13,10,52,18.90
2010,07,13,10,53,18.50
2010,07,13,10,54,20.50
2010,07,13,10,55,16.00
2010,07,13,10,56,18.70
2010,07,13,10,57,22.70
2010,07,13,10,58,18.30
2010,07,13,10,59,23.00
2010,07,13,11,00,25.40
2010,07,13,11,01,24.40
2010,07,13,11,02,19.70
2010,07,13,11,03,23.10
2010,07,13,11,04,24.50
2010,07,13,11,05,20.50
2010,07,13,11,06,25.20
2010,07,13,11,07,20.20
2010,07,13,11,08,20.80
2010,07,13,11,09,19.00
2010,07,13,11,10,16.30
2010,07,13,11,11,23.90
2010,07,13,11,12,22.20
2010,07,13,11,13,23.30
2010,07,13,11,14,24.80
2010,07,13,11,15,20.10
2010,07,13,11,16,24.90
2010,07,13,11,17,21.90
2010,07,13,11,18,24.50
2010,07,13,11,19,24.10
2010,07,13,11,20,25.40
2010,07,13,11,21,21.60
2010,07,13,11,22,22.90
2010,07,13,11,23,24.10
2010,07,13,11,24,20.90
2010,07,13,11,25,25.20
2010,07,13,11,26,25.30
2010,07,13,11,27,22.20
2010,07,13,11,28,23.00
2010,07,13,11,29,22.10
2010,07,13,11,30,14.40
2010,07,13,11,31,19.50
2010,07,13,11,32,23.20
2010,07,13,11,33,25.10
2010,07,13,11,34,27.40
2010,07,13,11,35,24.90
2010,07,13,11,36,22.10
2010,07,13,11,37,19.90
2010,07,13,11,38,26.20
2010,07,13,11,39,21.40
2010,07,13,11,40,20.70
2010,07,13,11,41,20.90
2010,07,13,11,42,16.40
2010,07,13,11,43,18.30
2010,07,13,11,44,14.60
2010,07,13,11,45,15.50
2010,07,13,11,46,16.40
2010,07,13,11,47,23.20
2010,07,13,11,48,21.50
2010,07,13,11,49,20.60
2010,07,13,11,50,19.10
2010,07,13,11,51,19.50
2010,07,13,11,52,20.30
2010,07,13,11,53,20.90
2010,07,13,11,54,22.70
2010,07,13,11,55,17.50
2010,07,13,11,56,19.80
2010,07,13,11,57,21.80
2010,07,13,11,58,19.70
2010,07,13,11,59,21.50
2010,07,13,12,00,27.00
2010,07,13,12,01,22.80
2010,07,13,12,02,21.70
2010,07,13,12,03,22.60
2010,07,13,12,04,15.60
2010,07,13,12,05,23.40
2010,07,13,12,06,24.80
2010,07,13,12,07,23.00
2010,07,13,12,08,20.80
2010,07,13,12,09,16.80
2010,07,13,12,10,20.80
2010,07,13,12,11,21.80
2010,07,13,12,12,20.60
2010,07,13,12,13,21.80
2010,07,13,12,14,20.10
2010,07,13,12,15,17.30
2010,07,13,12,16,22.60
2010,07,13,12,17,17.40
2010,07,13,12,18,21.60
2010,07,13,12,19,21.00
2010,07,13,12,20,24.00
2010,07,13,12,21,21.80
2010,07,13,12,22,20.00
2010,07,13,12,23,22.80
2010,07,13,12,24,23.10
2010,07,13,12,25,19.70
2010,07,13,12,26,21.60
2010,07,13,12,27,19.50
2010,07,13,12,28,22.10
2010,07,13,12,29,20.10
2010,07,13,12,30,22.90
2010,07,13,12,31,24.30
2010,07,13,12,32,21.60
2010,07,13,12,33,21.30
2010,07,13,12,34,20.30
2010,07,13,12,35,21.60
2010,07,13,12,36,20.30
2010,07,13,12,37,18.20
2010,07,13,12,38,15.30
2010,07,13,12,39,14.10
2010,07,13,12,40,14.80
2010,07,13,12,41,17.60
2010,07,13,12,42,14.50
2010,07,13,12,43,16.30
2010,07,13,12,44,17.50
2010,07,13,12,45,21.80
2010,07,13,12,46,19.70
2010,07,13,12,47,21.20
2010,07,13,12,48,17.80
2010,07,13,12,49,21.60
2010,07,13,12,50,17.80
2010,07,13,12,51,19.90
2010,07,13,12,52,18.80
2010,07,13,12,53,19.10
2010,07,13,12,54,16.30
2010,07,13,12,55,11.30
2010,07,13,12,56,13.60
2010,07,13,12,57,19.60
2010,07,13,12,58,22.10
2010,07,13,12,59,15.10
2010,07,13,13,00,19.60
2010,07,13,13,01,20.10
2010,07,13,13,02,22.40
2010,07,13,13,03,19.70
2010,07,13,13,04,19.10
2010,07,13,13,05,20.50
2010,07,13,13,06,20.90
2010,07,13,13,07,18.90
2010,07,13,13,08,17.70
2010,07,13,13,09,20.50
2010,07,13,13,10,17.00
2010,07,13,13,11,16.20
2010,07,13,13,12,16.00
2010,07,13,13,13,20.30
2010,07,13,13,14,17.70
2010,07,13,13,15,17.70
2010,07,13,13,16,19.30
2010,07,13,13,17,13.00
2010,07,13,13,18,17.20
2010,07,13,13,19,14.50
2010,07,13,13,20,18.80
2010,07,13,13,21,14.10
2010,07,13,13,22,15.80
2010,07,13,13,23,18.50
2010,07,13,13,24,15.20
2010,07,13,13,25,13.70
2010,07,13,13,26,17.10
2010,07,13,13,27,12.50
2010,07,13,13,28,12.50
2010,07,13,13,29,14.10
2010,07,13,13,30,14.50
2010,07,13,13,31,20.30
2010,07,13,13,32,19.00
2010,07,13,13,33,18.10
2010,07,13,13,34,11.70
2010,07,13,13,35,19.00
2010,07,13,13,36,21.20
2010,07,13,13,37,16.10
2010,07,13,13,38,15.90
2010,07,13,13,39,20.90
2010,07,13,13,40,18.30
2010,07,13,13,41,14.30
2010,07,13,13,42,13.30
2010,07,13,13,43,13.90
2010,07,13,13,44,13.80
2010,07,13,13,45,16.60
2010,07,13,13,46,12.10
2010,07,13,13,47,12.60
2010,07,13,13,48,15.90
2010,07,13,13,49,17.10
2010,07,13,13,50,12.90
2010,07,13,13,51,13.90
2010,07,13,13,52,15.40
2010,07,13,13,53,18.00
2010,07,13,13,54,20.20
2010,07,13,13,55,16.00
2010,07,13,13,56,18.60
2010,07,13,13,57,18.30
2010,07,13,13,58,14.80
2010,07,13,13,59,12.40
2010,07,13,14,00,14.10
2010,07,13,14,01,15.70
2010,07,13,14,02,16.90
2010,07,13,14,03,24.00
2010,07,13,14,04,13.70
2010,07,13,14,05,12.30
2010,07,13,14,06,12.00
2010,07,13,14,07,9.60
2010,07,13,14,08,15.50
2010,07,13,14,09,17.50
2010,07,13,14,10,14.00
2010,07,13,14,11,13.40
2010,07,13,14,12,16.10
2010,07,13,14,13,14.60
2010,07,13,14,14,18.40
2010,07,13,14,15,17.10
2010,07,13,14,16,13.30
2010,07,13,14,17,16.70
2010,07,13,14,18,14.20
2010,07,13,14,19,16.10
2010,07,13,14,20,14.90
2010,07,13,14,21,13.20
2010,07,13,14,22,18.00
2010,07,13,14,23,16.90
2010,07,13,14,24,13.60
2010,07,13,14,25,11.30
2010,07,13,14,26,16.10
2010,07,13,14,27,12.40
2010,07,13,14,28,10.70
2010,07,13,14,29,13.30
2010,07,13,14,30,17.90
2010,07,13,14,31,13.40
2010,07,13,14,32,13.30
2010,07,13,14,33,15.70
2010,07,13,14,34,14.50
2010,07,13,14,35,16.80
2010,07,13,14,36,13.70
2010,07,13,14,37,14.10
2010,07,13,14,38,15.60
2010,07,13,14,39,11.50
2010,07,13,14,40,11.20
2010,07,13,14,41,13.80
2010,07,13,14,42,11.00
2010,07,13,14,43,12.60
2010,07,13,14,44,13.50
2010,07,13,14,45,10.80
2010,07,13,14,46,14.20
2010,07,13,14,47,11.90
2010,07,13,14,48,11.40
2010,07,13,14,49,12.10
2010,07,13,14,50,10.40
2010,07,13,14,51,10.80
2010,07,13,14,52,12.10
2010,07,13,14,53,14.70
2010,07,13,14,54,13.50
2010,07,13,14,55,14.90
2010,07,13,14,56,13.30
2010,07,13,14,57,15.80
2010,07,13,14,58,7.40
2010,07,13,14,59,13.10
2010,07,13,15,00,11.40
2010,07,13,15,01,14.20
2010,07,13,15,02,15.50
2010,07,13,15,03,13.10
2010,07,13,15,04,12.60
2010,07,13,15,05,11.60
2010,07,13,15,06,12.20
2010,07,13,15,07,11.90
2010,07,13,15,08,11.80
2010,07,13,15,09,9.70
2010,07,13,15,10,9.00
2010,07,13,15,11,18.60
2010,07,13,15,12,16.50
2010,07,13,15,13,15.40
2010,07,13,15,14,10.60
2010,07,13,15,15,11.00
2010,07,13,15,16,12.60
2010,07,13,15,17,15.00
2010,07,13,15,18,14.70
2010,07,13,15,19,8.70
2010,07,13,15,20,13.40
2010,07,13,15,21,11.10
2010,07,13,15,22,15.80
2010,07,13,15,23,14.50
2010,07,13,15,24,11.90
2010,07,13,15,25,11.50
2010,07,13,15,26,11.60
2010,07,13,15,27,15.50
2010,07,13,15,28,15.20
2010,07,13,15,29,15.80
2010,07,13,15,30,13.00
2010,07,13,15,31,11.90
2010,07,13,15,32,9.70
2010,07,13,15,33,12.60
2010,07,13,15,34,13.20
2010,07,13,15,35,9.80
2010,07,13,15,36,9.20
2010,07,13,15,37,15.10
2010,07,13,15,38,14.40
2010,07,13,15,39,14.40
2010,07,13,15,40,13.90
2010,07,13,15,41,11.60
2010,07,13,15,42,8.40
2010,07,13,15,43,9.00
2010,07,13,15,44,9.20
2010,07,13,15,45,11.60
2010,07,13,15,46,9.00
2010,07,13,15,47,9.70
2010,07,13,15,48,10.70
2010,07,13,15,49,14.40
2010,07,13,15,50,13.20
2010,07,13,15,51,10.90
2010,07,13,15,52,12.20
2010,07,13,15,53,13.40
2010,07,13,15,54,8.40
2010,07,13,15,55,12.30
2010,07,13,15,56,11.70
2010,07,13,15,57,11.60
2010,07,13,15,58,7.00
2010,07,13,15,59,9.60
2010,07,13,16,00,5.80
2010,07,13,16,01,11.00
2010,07,13,16,02,12.20
2010,07,13,16,03,12.20
2010,07,13,16,04,11.40
2010,07,13,16,05,9.70
2010,07,13,16,06,12.60
2010,07,13,16,07,13.40
2010,07,13,16,08,13.20
2010,07,13,16,09,13.90
2010,07,13,16,10,11.30
2010,07,13,16,11,9.70
2010,07,13,16,12,13.20
2010,07,13,16,13,12.70
2010,07,13,16,14,16.30
2010,07,13,16,15,17.20
2010,07,13,16,16,16.00
2010,07,13,16,17,15.80
2010,07,13,16,18,11.00
2010,07,13,16,19,11.50
2010,07,13,16,20,15.30
2010,07,13,16,21,11.40
2010,07,13,16,22,14.00
2010,07,13,16,23,10.90
2010,07,13,16,24,9.20
2010,07,13,16,25,7.90
2010,07,13,16,26,9.00
2010,07,13,16,27,9.70
2010,07,13,16,28,10.30
2010,07,13,16,29,11.00
2010,07,13,16,30,8.60
2010,07,13,16,31,6.70
2010,07,13,16,32,11.80
2010,07,13,16,33,12.50
2010,07,13,16,34,7.90
2010,07,13,16,35,8.30
2010,07,13,16,36,14.50
2010,07,13,16,37,13.40
2010,07,13,16,38,9.10
2010,07,13,16,39,9.00
2010,07,13,16,40,12.00
2010,07,13,16,41,10.30
2010,07,13,16,42,8.10
2010,07,13,16,43,8.60
2010,07,13,16,44,15.50
2010,07,13,16,45,9.50
2010,07,13,16,46,11.40
2010,07,13,16,47,12.30
2010,07,13,16,48,13.00
2010,07,13,16,49,8.30
2010,07,13,16,50,10.00
2010,07,13,16,51,9.40
2010,07,13,16,52,9.30
2010,07,13,16,53,13.50
2010,07,13,16,54,13.60
2010,07,13,16,55,9.50
2010,07,13,16,56,15.80
2010,07,13,16,57,7.50
2010,07,13,16,58,9.00
2010,07,13,16,59,12.10
2010,07,13,17,00,11.90
2010,07,13,17,01,15.80
2010,07,13,17,02,8.30
2010,07,13,17,03,10.30
2010,07,13,17,04,7.00
2010,07,13,17,05,10.40
2010,07,13,17,06,10.10
2010,07,13,17,07,9.70
2010,07,13,17,08,9.00
2010,07,13,17,09,11.90
2010,07,13,17,10,10.30
2010,07,13,17,11,9.70
2010,07,13,17,12,6.90
2010,07,13,17,13,6.40
2010,07,13,17,14,7.00
2010,07,13,17,15,8.60
2010,07,13,17,16,9.80
2010,07,13,17,17,8.30
2010,07,13,17,18,11.00
2010,07,13,17,19,11.30
2010,07,13,17,20,9.20
2010,07,13,17,21,8.80
2010,07,13,17,22,8.90
2010,07,13,17,23,7.40
2010,07,13,17,24,8.70